TimeEDT,TemperatureF,Dew PointF,Humidity,Sea Level PressureIn,VisibilityMPH,Wind Direction,Wind SpeedMPH,Gust SpeedMPH,PrecipitationIn,Events,Conditions,WindDirDegrees,DateUTC
12:53 AM,77.0,66.9,71,30.04,10.0,SE,4.6,-,N/A,,Mostly Cloudy,140,2012-05-15 04:53:00
1:53 AM,75.9,68.0,76,30.01,10.0,SE,6.9,-,N/A,,Overcast,140,2012-05-15 05:53:00
2:53 AM,75.9,69.1,79,29.98,10.0,Calm,Calm,-,N/A,,Overcast,0,2012-05-15 06:53:00
3:53 AM,75.0,68.0,79,29.96,10.0,Calm,Calm,-,N/A,,Mostly Cloudy,0,2012-05-15 07:53:00
4:53 AM,75.0,66.9,76,29.96,10.0,Calm,Calm,-,N/A,,Mostly Cloudy,0,2012-05-15 08:53:00
5:53 AM,75.9,68.0,76,29.97,10.0,Calm,Calm,-,N/A,,Mostly Cloudy,0,2012-05-15 09:53:00
6:53 AM,75.2,68.0,78,29.99,10.0,SSE,4.6,-,N/A,,Mostly Cloudy,150,2012-05-15 10:53:00
7:53 AM,75.9,68.0,76,30.01,10.0,SSE,3.5,-,N/A,,Mostly Cloudy,160,2012-05-15 11:53:00
8:53 AM,78.1,66.9,68,30.04,10.0,South,5.8,-,N/A,,Mostly Cloudy,190,2012-05-15 12:53:00
9:53 AM,81.0,66.9,62,30.03,10.0,SSW,5.8,-,N/A,,Overcast,210,2012-05-15 13:53:00
10:53 AM,81.0,69.1,67,30.03,10.0,WSW,4.6,-,N/A,,Overcast,240,2012-05-15 14:53:00
11:53 AM,84.0,63.0,49,30.03,10.0,Variable,4.6,-,N/A,,Overcast,0,2012-05-15 15:53:00
12:53 PM,84.0,63.0,49,30.03,10.0,SSW,6.9,-,N/A,,Mostly Cloudy,200,2012-05-15 16:53:00
1:53 PM,87.1,66.9,51,30.00,10.0,WSW,6.9,-,N/A,,Scattered Clouds,240,2012-05-15 17:53:00
2:53 PM,86.0,66.2,51,29.98,10.0,Variable,6.9,-,N/A,,Scattered Clouds,0,2012-05-15 18:53:00
3:53 PM,89.1,66.9,48,29.96,10.0,WNW,10.4,18.4,N/A,,Scattered Clouds,290,2012-05-15 19:53:00
4:53 PM,89.1,64.9,45,29.95,10.0,WSW,12.7,-,N/A,,Scattered Clouds,250,2012-05-15 20:53:00
5:53 PM,86.0,64.0,48,29.96,10.0,West,11.5,-,N/A,,Mostly Cloudy,260,2012-05-15 21:53:00
6:53 PM,84.0,64.9,53,29.98,10.0,West,9.2,-,N/A,,Scattered Clouds,270,2012-05-15 22:53:00
7:53 PM,82.0,64.9,56,29.99,10.0,WNW,9.2,-,N/A,,Scattered Clouds,300,2012-05-15 23:53:00
8:53 PM,80.1,64.9,60,30.00,10.0,NW,6.9,-,N/A,,Partly Cloudy,320,2012-05-16 00:53:00
9:53 PM,79.0,66.9,66,30.02,10.0,Calm,Calm,-,N/A,,Partly Cloudy,0,2012-05-16 01:53:00
10:53 PM,79.0,69.1,72,30.03,10.0,Calm,Calm,-,N/A,,Partly Cloudy,0,2012-05-16 02:53:00
11:53 PM,79.0,68.0,69,30.04,10.0,East,3.5,-,N/A,,Scattered Clouds,100,2012-05-16 03:53:00